�������l�o���
Date,Time,MP-1(��Sv/h),MP-2(��Sv/h),MP-3(��Sv/h),MP-4(��Sv/h),MP-5(��Sv/h),MP-6(��Sv/h),MP-7(��Sv/h),MP-8(��Sv/h),����,����(m/s),���J
2021/04/27,00:00,0.641,0.962,0.599,1.185,0.840,0.373,0.659,0.616,�k��,4.6,��
2021/04/27,00:10,0.644,0.962,0.597,1.185,0.841,0.372,0.658,0.617,�k��,5.1,��
2021/04/27,00:20,0.643,0.962,0.599,1.184,0.842,0.373,0.659,0.616,�k�k��,4.3,��
2021/04/27,00:30,0.642,0.959,0.599,1.187,0.841,0.372,0.658,0.616,�k�k��,4.0,��
2021/04/27,00:40,0.643,0.962,0.597,1.185,0.841,0.373,0.658,0.617,�k�k��,5.0,��
2021/04/27,00:50,0.641,0.963,0.594,1.188,0.840,0.373,0.660,0.617,�k��,4.6,��
2021/04/27,01:00,0.642,0.961,0.598,1.185,0.841,0.373,0.657,0.615,�k��,4.2,��
2021/04/27,01:10,0.642,0.960,0.598,1.185,0.840,0.372,0.660,0.617,�k��,4.8,��
2021/04/27,01:20,0.641,0.962,0.598,1.184,0.841,0.372,0.660,0.616,�k��,4.3,��
2021/04/27,01:30,0.641,0.962,0.595,1.186,0.839,0.372,0.659,0.616,�k��,4.5,��
2021/04/27,01:40,0.640,0.962,0.597,1.188,0.840,0.373,0.659,0.617,�k��,4.6,��
2021/04/27,01:50,0.642,0.961,0.596,1.186,0.840,0.374,0.660,0.615,�k��,5.1,��
2021/04/27,02:00,0.641,0.961,0.597,1.185,0.838,0.374,0.659,0.615,�k��,4.5,��
2021/04/27,02:10,0.641,0.962,0.596,1.188,0.840,0.373,0.659,0.615,�k��,5.3,��
2021/04/27,02:20,0.642,0.959,0.599,1.185,0.839,0.374,0.658,0.615,�k��,5.7,��
2021/04/27,02:30,0.641,0.957,0.597,1.186,0.840,0.372,0.658,0.615,���k��,6.0,��
2021/04/27,02:40,0.642,0.959,0.596,1.189,0.840,0.372,0.660,0.616,���k��,6.3,��
2021/04/27,02:50,0.642,0.960,0.596,1.188,0.839,0.374,0.658,0.615,�k��,6.0,��
2021/04/27,03:00,0.643,0.958,0.597,1.185,0.839,0.374,0.657,0.615,���k��,6.0,��
2021/04/27,03:10,0.640,0.959,0.597,1.185,0.839,0.373,0.660,0.615,���k��,5.9,��
2021/04/27,03:20,0.642,0.960,0.597,1.187,0.839,0.372,0.658,0.614,���k��,6.4,��
2021/04/27,03:30,0.642,0.962,0.596,1.185,0.841,0.373,0.658,0.617,���k��,6.3,��
2021/04/27,03:40,0.642,0.960,0.598,1.185,0.840,0.373,0.658,0.616,���k��,6.5,��
2021/04/27,03:50,0.641,0.961,0.595,1.184,0.839,0.374,0.656,0.616,���k��,5.9,��
2021/04/27,04:00,0.643,0.960,0.595,1.186,0.839,0.374,0.659,0.615,�k��,6.7,��
2021/04/27,04:10,0.640,0.960,0.597,1.183,0.839,0.374,0.659,0.615,�k��,7.0,��
2021/04/27,04:20,0.642,0.958,0.598,1.186,0.840,0.372,0.657,0.616,�k��,6.9,��
2021/04/27,04:30,0.641,0.959,0.597,1.185,0.838,0.372,0.659,0.617,�k��,6.7,��
2021/04/27,04:40,0.641,0.959,0.596,1.185,0.838,0.373,0.657,0.616,���k��,6.2,��
2021/04/27,04:50,0.642,0.957,0.597,1.186,0.841,0.373,0.657,0.615,�k��,6.0,��
2021/04/27,05:00,0.642,0.958,0.598,1.184,0.840,0.373,0.659,0.616,�k��,5.7,��
2021/04/27,05:10,0.641,0.960,0.596,1.183,0.839,0.373,0.656,0.616,�k��,5.5,��
2021/04/27,05:20,0.641,0.959,0.596,1.185,0.839,0.372,0.659,0.618,���k��,5.7,��
2021/04/27,05:30,0.642,0.959,0.595,1.184,0.839,0.372,0.656,0.616,���k��,5.8,��
2021/04/27,05:40,0.642,0.958,0.597,1.183,0.838,0.372,0.658,0.616,���k��,5.1,��
2021/04/27,05:50,0.642,0.958,0.597,1.185,0.839,0.372,0.659,0.617,���k��,5.1,��
2021/04/27,06:00,0.641,0.963,0.599,1.184,0.841,0.373,0.659,0.615,�k��,5.4,��
2021/04/27,06:10,0.641,0.961,0.597,1.185,0.838,0.373,0.658,0.615,�k��,5.2,��
2021/04/27,06:20,0.640,0.959,0.598,1.186,0.838,0.373,0.658,0.615,�k��,4.3,��
2021/04/27,06:30,0.642,0.959,0.597,1.187,0.837,0.374,0.658,0.616,�k��,4.2,��
2021/04/27,06:40,0.641,0.962,0.597,1.187,0.838,0.375,0.659,0.617,�k�k��,3.5,��
2021/04/27,06:50,0.642,0.961,0.598,1.187,0.838,0.375,0.659,0.616,�k�k��,3.6,��
2021/04/27,07:00,0.643,0.963,0.598,1.187,0.839,0.375,0.661,0.616,�k�k��,3.2,��
2021/04/27,07:10,0.643,0.960,0.596,1.185,0.839,0.373,0.660,0.617,�k,2.9,��
2021/04/27,07:20,0.643,0.960,0.598,1.188,0.838,0.372,0.659,0.617,�k,2.0,��
2021/04/27,07:30,0.644,0.961,0.598,1.184,0.840,0.372,0.660,0.616,�k�k��,1.9,��
2021/04/27,07:40,0.645,0.959,0.598,1.186,0.840,0.372,0.661,0.617,�k,2.5,��
2021/04/27,07:50,0.644,0.958,0.599,1.187,0.839,0.371,0.659,0.616,�k�k��,2.6,��
2021/04/27,08:00,0.644,0.959,0.599,1.186,0.839,0.373,0.660,0.617,�k�k��,2.3,��
2021/04/27,08:10,0.645,0.959,0.598,1.188,0.839,0.372,0.660,0.618,�k��,3.0,��
2021/04/27,08:20,0.645,0.958,0.600,1.187,0.841,0.372,0.661,0.619,�k��,2.2,��
2021/04/27,08:30,0.643,0.955,0.597,1.189,0.838,0.373,0.660,0.616,�k��,2.9,��
2021/04/27,08:40,0.644,0.956,0.598,1.188,0.840,0.371,0.661,0.615,���k��,4.1,��
2021/04/27,08:50,0.645,0.957,0.595,1.187,0.841,0.373,0.659,0.615,�k�k��,3.5,��
2021/04/27,09:00,0.646,0.956,0.599,1.189,0.841,0.372,0.659,0.615,�k��,4.2,��
2021/04/27,09:10,0.644,0.957,0.599,1.188,0.840,0.374,0.659,0.614,�k��,4.7,��
2021/04/27,09:20,0.646,0.957,0.598,1.187,0.841,0.373,0.661,0.615,���k��,3.6,��
2021/04/27,09:30,0.645,0.957,0.598,1.186,0.843,0.372,0.659,0.615,���k��,4.6,��
2021/04/27,09:40,0.644,0.957,0.597,1.191,0.842,0.373,0.659,0.615,���k��,4.5,��
2021/04/27,09:50,0.645,0.957,0.598,1.187,0.842,0.373,0.658,0.613,�k��,4.6,��
2021/04/27,10:00,0.645,0.959,0.599,1.188,0.842,0.373,0.660,0.615,���k��,3.8,��
2021/04/27,10:10,0.643,0.956,0.597,1.186,0.842,0.373,0.660,0.615,���k��,3.9,��
2021/04/27,10:20,0.645,0.958,0.600,1.186,0.841,0.372,0.659,0.615,���k��,2.9,��
2021/04/27,10:30,0.644,0.959,0.599,1.188,0.842,0.374,0.659,0.615,��,2.6,��
2021/04/27,10:40,0.644,0.959,0.600,1.186,0.840,0.372,0.659,0.616,���쓌,3.0,��
2021/04/27,10:50,0.645,0.958,0.600,1.188,0.842,0.373,0.659,0.617,���쓌,2.3,��
2021/04/27,11:00,0.644,0.959,0.597,1.188,0.839,0.373,0.659,0.614,���쓌,3.6,��
2021/04/27,11:10,0.644,0.960,0.598,1.188,0.841,0.373,0.659,0.616,���쓌,2.6,��
2021/04/27,11:20,0.642,0.960,0.599,1.191,0.842,0.372,0.659,0.616,���쓌,3.4,��
2021/04/27,11:30,0.643,0.958,0.597,1.189,0.839,0.373,0.660,0.614,���쓌,4.1,��
2021/04/27,11:40,0.644,0.963,0.596,1.191,0.842,0.372,0.659,0.616,���쓌,3.7,��
2021/04/27,11:50,0.644,0.962,0.598,1.186,0.843,0.373,0.659,0.616,�쓌,5.3,��
2021/04/27,12:00,0.643,0.963,0.597,1.187,0.842,0.373,0.659,0.615,��쓌,4.5,��
2021/04/27,12:10,0.644,0.963,0.599,1.186,0.843,0.373,0.659,0.616,��쓌,4.5,��
2021/04/27,12:20,0.645,0.962,0.597,1.187,0.841,0.373,0.659,0.616,��쓌,5.3,��
2021/04/27,12:30,0.644,0.963,0.598,1.186,0.842,0.372,0.661,0.615,�쓌,4.6,��
2021/04/27,12:40,0.645,0.962,0.598,1.189,0.843,0.374,0.661,0.615,��쓌,5.4,��
2021/04/27,12:50,0.646,0.960,0.599,1.191,0.841,0.373,0.661,0.616,��쓌,4.6,��
2021/04/27,13:00,0.645,0.963,0.599,1.189,0.842,0.373,0.662,0.617,��쓌,5.2,��
2021/04/27,13:10,0.646,0.963,0.598,1.189,0.843,0.373,0.660,0.616,��쓌,5.3,��
2021/04/27,13:20,0.645,0.959,0.597,1.188,0.843,0.374,0.662,0.614,��쓌,6.5,��
2021/04/27,13:30,0.647,0.961,0.598,1.189,0.844,0.374,0.661,0.615,��쓌,6.0,��
2021/04/27,13:40,0.646,0.960,0.600,1.192,0.842,0.374,0.662,0.615,��쓌,8.6,��
2021/04/27,13:50,0.647,0.960,0.598,1.189,0.842,0.372,0.659,0.616,��쓌,7.3,��
2021/04/27,14:00,0.645,0.962,0.598,1.191,0.842,0.374,0.660,0.616,��쓌,8.4,��
2021/04/27,14:10,0.646,0.963,0.599,1.191,0.844,0.374,0.661,0.615,��쓌,8.7,��
2021/04/27,14:20,0.647,0.963,0.598,1.191,0.843,0.373,0.661,0.616,��쓌,8.0,��
2021/04/27,14:30,0.646,0.963,0.599,1.193,0.841,0.373,0.660,0.616,��쓌,8.3,��
2021/04/27,14:40,0.647,0.964,0.598,1.188,0.845,0.374,0.660,0.615,��쓌,8.0,��
2021/04/27,14:50,0.647,0.963,0.600,1.189,0.843,0.375,0.662,0.617,��쓌,8.5,��
2021/04/27,15:00,0.646,0.963,0.600,1.188,0.843,0.374,0.660,0.617,��쓌,8.5,��
2021/04/27,15:10,0.646,0.963,0.599,1.187,0.843,0.375,0.661,0.616,��쓌,9.4,��
2021/04/27,15:20,0.646,0.963,0.599,1.187,0.843,0.374,0.661,0.615,��쓌,10.6,��
2021/04/27,15:30,0.647,0.965,0.599,1.187,0.843,0.374,0.661,0.617,��쓌,9.4,��
2021/04/27,15:40,0.647,0.962,0.599,1.186,0.844,0.375,0.662,0.615,��쓌,9.4,��
2021/04/27,15:50,0.647,0.963,0.599,1.188,0.844,0.375,0.660,0.616,��쓌,10.0,��
2021/04/27,16:00,0.648,0.963,0.599,1.186,0.844,0.376,0.662,0.616,��,8.6,��
2021/04/27,16:10,0.646,0.966,0.599,1.190,0.845,0.377,0.661,0.617,��쓌,10.2,��
2021/04/27,16:20,0.646,0.968,0.601,1.191,0.845,0.375,0.661,0.616,��쓌,10.0,��
2021/04/27,16:30,0.647,0.963,0.598,1.187,0.843,0.377,0.659,0.616,��쓌,10.0,��
2021/04/27,16:40,0.645,0.965,0.598,1.189,0.842,0.377,0.660,0.616,��쓌,8.9,��
2021/04/27,16:50,0.647,0.965,0.600,1.191,0.845,0.377,0.659,0.615,��쓌,9.7,��
2021/04/27,17:00,0.649,0.964,0.598,1.192,0.843,0.378,0.661,0.616,��,8.4,��
2021/04/27,17:10,0.648,0.965,0.599,1.192,0.844,0.377,0.661,0.616,��,8.5,��
2021/04/27,17:20,0.650,0.966,0.600,1.191,0.844,0.377,0.661,0.619,��,8.7,��
2021/04/27,17:30,0.649,0.969,0.602,1.193,0.842,0.378,0.662,0.619,��,8.5,��
2021/04/27,17:40,0.649,0.968,0.601,1.192,0.845,0.378,0.661,0.620,��,7.8,��
2021/04/27,17:50,0.650,0.966,0.602,1.192,0.844,0.378,0.661,0.621,��,7.6,��
2021/04/27,18:00,0.648,0.965,0.602,1.191,0.847,0.378,0.661,0.618,��,7.9,��
2021/04/27,18:10,0.649,0.967,0.603,1.192,0.846,0.378,0.661,0.619,��,7.3,��
2021/04/27,18:20,0.648,0.966,0.603,1.190,0.847,0.378,0.662,0.620,��,7.6,��
2021/04/27,18:30,0.648,0.967,0.602,1.190,0.846,0.377,0.663,0.619,��,8.1,��
2021/04/27,18:40,0.648,0.965,0.601,1.190,0.846,0.376,0.662,0.617,��,7.3,��
2021/04/27,18:50,0.649,0.966,0.601,1.193,0.847,0.377,0.663,0.619,��,7.6,��
2021/04/27,19:00,0.648,0.966,0.601,1.192,0.845,0.377,0.662,0.620,��,8.9,��
2021/04/27,19:10,0.648,0.967,0.601,1.189,0.846,0.377,0.663,0.618,��,9.6,��
2021/04/27,19:20,0.647,0.966,0.599,1.192,0.848,0.376,0.662,0.619,��,8.9,��
2021/04/27,19:30,0.649,0.967,0.600,1.191,0.848,0.376,0.663,0.617,��,9.1,��
2021/04/27,19:40,0.650,0.968,0.602,1.192,0.849,0.376,0.664,0.618,��,8.0,��
2021/04/27,19:50,0.647,0.968,0.602,1.191,0.847,0.376,0.663,0.620,��,7.8,��
2021/04/27,20:00,0.648,0.966,0.601,1.192,0.846,0.376,0.663,0.617,��,7.0,��
2021/04/27,20:10,0.647,0.965,0.602,1.192,0.845,0.376,0.663,0.618,��쐼,5.5,��
2021/04/27,20:20,0.648,0.966,0.602,1.192,0.845,0.376,0.663,0.619,��,5.4,��
2021/04/27,20:30,0.648,0.966,0.602,1.191,0.846,0.376,0.662,0.618,��,4.8,��
2021/04/27,20:40,0.649,0.967,0.602,1.190,0.846,0.375,0.662,0.617,��,5.3,��
2021/04/27,20:50,0.649,0.967,0.602,1.190,0.845,0.377,0.663,0.619,��쐼,5.7,��
2021/04/27,21:00,0.646,0.969,0.600,1.188,0.847,0.377,0.664,0.617,��,6.8,��
2021/04/27,21:10,0.647,0.967,0.601,1.190,0.846,0.376,0.660,0.617,��,5.5,��
2021/04/27,21:20,0.648,0.966,0.601,1.191,0.847,0.375,0.663,0.616,��,5.1,��
2021/04/27,21:30,0.648,0.966,0.601,1.190,0.844,0.377,0.662,0.619,��,4.6,��
2021/04/27,21:40,0.646,0.968,0.601,1.188,0.845,0.376,0.663,0.619,��,5.5,��
2021/04/27,21:50,0.648,0.966,0.602,1.191,0.844,0.375,0.663,0.618,��,5.4,��
2021/04/27,22:00,0.648,0.968,0.602,1.192,0.846,0.375,0.662,0.617,��,5.7,��
2021/04/27,22:10,0.651,0.966,0.601,1.191,0.846,0.376,0.663,0.618,��,5.1,��
2021/04/27,22:20,0.648,0.967,0.600,1.190,0.845,0.375,0.663,0.618,��,5.2,��
2021/04/27,22:30,0.647,0.968,0.602,1.191,0.842,0.377,0.664,0.618,��,5.6,��
2021/04/27,22:40,0.648,0.966,0.601,1.191,0.847,0.377,0.662,0.618,��,5.5,��
2021/04/27,22:50,0.647,0.967,0.599,1.188,0.846,0.377,0.663,0.616,��,5.2,��
2021/04/27,23:00,0.650,0.965,0.601,1.189,0.842,0.376,0.663,0.618,��,5.3,��
2021/04/27,23:10,0.647,0.966,0.602,1.189,0.843,0.376,0.664,0.618,��,4.1,��
2021/04/27,23:20,0.647,0.967,0.603,1.191,0.845,0.377,0.662,0.618,��,5.4,��
2021/04/27,23:30,0.647,0.964,0.603,1.190,0.844,0.376,0.662,0.618,��,5.9,��
2021/04/27,23:40,0.646,0.966,0.602,1.189,0.842,0.375,0.663,0.618,��,5.7,��
2021/04/27,23:50,0.646,0.966,0.600,1.188,0.845,0.377,0.662,0.618,��쐼,5.5,��
